N3LF Weather Reports


Display with metric or nautical units.
time (UTC)temp
F
wind
direction
speed
MPH
gust
MPH
rain 1hr
in
rain 24hr
in
rain mn
in
humidity
%
barometer
mb
20260905234630 91 234 1.0 1.0 0.00 0.00 0.00 61 1013.3
20260905234126 92 235 0.0 1.0 0.00 0.00 0.00 61 1013.5
20260905233626 93 217 1.0 1.0 0.00 0.00 0.00 59 1013.3
20260905233120 94 213 1.0 2.0 0.00 0.00 0.00 57 1013.3
20260905232616 95 239 1.0 3.0 0.00 0.00 0.00 56 1013.4
20260905232112 95 245 2.0 2.0 0.00 0.00 0.00 55 1013.2
20260905231612 96 216 2.0 4.0 0.00 0.00 0.00 56 1013.4
20260905231108 96 277 2.0 3.0 0.00 0.00 0.00 54 1013.5
20260905230603 97 237 1.0 2.0 0.00 0.00 0.00 53 1013.2
20260905225600 98 253 2.0 3.0 0.00 0.00 0.00 53 1013.3
20260905225056 98 232 1.0 2.0 0.00 0.00 0.00 52 1013.2
20260905224555 97 297 2.0 2.0 0.00 0.00 0.00 51 1013.1
20260905224055 97 233 2.0 6.0 0.00 0.00 0.00 52 1013.2
20260905223553 98 242 1.0 2.0 0.00 0.00 0.00 52 1013.1
20260905223049 99 241 1.0 2.0 0.00 0.00 0.00 50 1013.1
20260905222548 98 242 2.0 3.0 0.00 0.00 0.00 52 1013.2
20260905222044 98 232 0.0 3.0 0.00 0.00 0.00 52 1013.3
20260905221540 99 185 4.0 6.0 0.00 0.00 0.00 51 1013.2
20260905221036 99 306 2.0 6.0 0.00 0.00 0.00 50 1013.3
20260905220531 100 288 4.0 6.0 0.00 0.00 0.00 48 1013.4
20260905220027 100 239 0.0 1.0 0.00 0.00 0.00 48 1013.4
20260905215526 101 229 2.0 3.0 0.00 0.00 0.00 48 1013.2
20260905215023 99 211 0.0 3.0 0.00 0.00 0.00 50 1013.1
20260905214518 100 303 1.0 4.0 0.00 0.00 0.00 48 1013.3
20260905214013 100 295 3.0 4.0 0.00 0.00 0.00 48 1013.3
20260905213509 100 230 0.0 3.0 0.00 0.00 0.00 46 1013.5
20260905213004 101 273 1.0 3.0 0.00 0.00 0.00 45 1013.5
20260905212459 101 351 2.0 3.0 0.00 0.00 0.00 46 1013.4
20260905211958 101 251 0.0 2.0 0.00 0.00 0.00 45 1013.5
20260905211454 101 10 2.0 3.0 0.00 0.00 0.00 48 1013.5
20260905210949 101 243 1.0 4.0 0.00 0.00 0.00 47 1013.5
20260905210445 101 211 1.0 3.0 0.00 0.00 0.00 48 1013.3
20260905205944 101 250 0.0 2.0 0.00 0.00 0.00 47 1013.5
20260905205439 101 349 1.0 2.0 0.00 0.00 0.00 45 1013.5
20260905204938 100 322 2.0 4.0 0.00 0.00 0.00 46 1013.6
20260905204434 100 237 1.0 4.0 0.00 0.00 0.00 46 1013.7
20260905203933 101 316 1.0 3.0 0.00 0.00 0.00 45 1013.8
20260905203428 101 234 2.0 3.0 0.00 0.00 0.00 47 1013.7
20260905202924 101 237 2.0 3.0 0.00 0.00 0.00 47 1014.1
20260905202419 101 192 2.0 2.0 0.00 0.00 0.00 47 1014.3
20260905201914 100 216 1.0 3.0 0.00 0.00 0.00 47 1014.2
20260905201410 99 358 2.0 6.0 0.00 0.00 0.00 49 1014.2
20260905200909 100 358 1.0 2.0 0.00 0.00 0.00 48 1014.2
20260905200405 101 316 2.0 3.0 0.00 0.00 0.00 45 1014.5
20260905195903 99 275 3.0 3.0 0.00 0.00 0.00 48 1014.4
20260905195359 100 166 2.0 3.0 0.00 0.00 0.00 48 1014.5
20260905194854 99 246 0.0 1.0 0.00 0.00 0.00 48 1014.5
20260905194354 98 261 0.0 3.0 0.00 0.00 0.00 50 1014.6
20260905193853 97 344 3.0 4.0 0.00 0.00 0.00 50 1014.7
20260905193348 98 255 1.0 3.0 0.00 0.00 0.00 51 1014.6
20260905192844 98 19 1.0 3.0 0.00 0.00 0.00 49 1014.5
20260905192340 98 13 2.0 4.0 0.00 0.00 0.00 48 1014.6
20260905191839 99 60 6.0 7.0 0.00 0.00 0.00 48 1014.8
20260905191338 102 17 1.0 2.0 0.00 0.00 0.00 46 1014.8
20260905190837 102 204 1.0 1.0 0.00 0.00 0.00 46 1014.8
20260905190336 100 264 1.0 3.0 0.00 0.00 0.00 49 1015.0
20260905185835 99 197 1.0 2.0 0.00 0.00 0.00 49 1015.1
20260905185331 100 204 0.0 2.0 0.00 0.00 0.00 46 1015.2
20260905184830 100 193 2.0 2.0 0.00 0.00 0.00 47 1015.3
20260905184329 102 146 0.0 1.0 0.00 0.00 0.00 51 1015.2
20260905183828 101 241 1.0 1.0 0.00 0.00 0.00 49 1015.4
20260905183323 98 17 1.0 3.0 0.00 0.00 0.00 50 1015.5
20260905182818 97 219 1.0 1.0 0.00 0.00 0.00 55 1015.5
20260905182318 96 123 2.0 2.0 0.00 0.00 0.00 54 1015.7
20260905181813 95 13 0.0 2.0 0.00 0.00 0.00 57 1015.8
20260905181312 97 9 2.0 3.0 0.00 0.00 0.00 56 1015.8
20260905180811 97 356 2.0 6.0 0.00 0.00 0.00 55 1016.0
20260905180307 99 51 0.0 2.0 0.00 0.00 0.00 51 1015.9
20260905175801 99 235 2.0 3.0 0.00 0.00 0.00 50 1016.1
20260905175256 99 217 0.0 2.0 0.00 0.00 0.00 50 1016.1
20260905174751 98 97 1.0 2.0 0.00 0.00 0.00 51 1016.0
20260905174247 96 73 0.0 1.0 0.00 0.00 0.00 53 1016.0
20260905173743 98 97 1.0 2.0 0.00 0.00 0.00 52 1016.3
20260905173239 97 82 1.0 3.0 0.00 0.00 0.00 53 1016.1
20260905172733 97 227 1.0 3.0 0.00 0.00 0.00 53 1016.2
20260905172232 95 76 1.0 4.0 0.00 0.00 0.00 54 1016.1
20260905171728 95 98 2.0 4.0 0.00 0.00 0.00 56 1016.2
20260905171224 97 13 2.0 8.0 0.00 0.00 0.00 56 1016.2
20260905170721 99 12 4.0 6.0 0.00 0.00 0.00 56 1016.3
20260905170222 97 40 0.0 1.0 0.00 0.00 0.00 54 1016.7
20260905165721 96 252 2.0 4.0 0.00 0.00 0.00 57 1016.5
20260905165216 96 64 2.0 3.0 0.00 0.00 0.00 56 1016.5
20260905164711 97 39 3.0 4.0 0.00 0.00 0.00 57 1016.6
20260905164211 97 185 1.0 4.0 0.00 0.00 0.00 57 1016.6
20260905163706 99 139 2.0 3.0 0.00 0.00 0.00 54 1016.7
20260905163203 97 184 1.0 1.0 0.00 0.00 0.00 55 1016.8
20260905162659 95 196 0.0 2.0 0.00 0.00 0.00 57 1016.8
20260905162158 94 303 1.0 2.0 0.00 0.00 0.00 60 1016.9
20260905161653 96 13 2.0 7.0 0.00 0.00 0.00 59 1016.9
20260905161151 95 45 2.0 4.0 0.00 0.00 0.00 59 1016.9
20260905160650 95 356 5.0 6.0 0.00 0.00 0.00 59 1016.8
20260905160149 93 233 1.0 4.0 0.00 0.00 0.00 62 1016.8
20260905155644 95 293 3.0 4.0 0.00 0.00 0.00 62 1016.9
20260905155143 93 321 1.0 4.0 0.00 0.00 0.00 64 1016.8
20260905154637 94 215 1.0 3.0 0.00 0.00 0.00 63 1017.0
20260905154133 93 276 0.0 3.0 0.00 0.00 0.00 64 1017.0
20260905153629 93 18 1.0 2.0 0.00 0.00 0.00 65 1017.0
20260905153124 92 328 4.0 6.0 0.00 0.00 0.00 69 1017.1
20260905152619 92 82 1.0 2.0 0.00 0.00 0.00 68 1017.0
20260905152113 91 358 2.0 3.0 0.00 0.00 0.00 72 1017.3
20260905151609 92 323 1.0 3.0 0.00 0.00 0.00 70 1017.2
20260905151104 91 299 0.0 3.0 0.00 0.00 0.00 73 1017.2
20260905150559 92 137 0.0 1.0 0.00 0.00 0.00 70 1017.3
20260905150058 92 234 1.0 2.0 0.00 0.00 0.00 72 1017.3
20260905145556 91 208 1.0 1.0 0.00 0.00 0.00 76 1017.5
20260905145055 91 73 0.0 1.0 0.00 0.00 0.00 75 1017.4
20260905144550 90 113 0.0 1.0 0.00 0.00 0.00 77 1017.4
20260905144049 89 59 1.0 2.0 0.00 0.00 0.00 78 1017.4
20260905143543 87 113 1.0 1.0 0.00 0.00 0.00 81 1017.5
20260905143039 87 52 2.0 6.0 0.00 0.00 0.00 81 1017.5
20260905142537 87 157 0.0 1.0 0.00 0.00 0.00 80 1017.5
20260905142032 87 92 0.0 2.0 0.00 0.00 0.00 80 1017.5
20260905141527 85 210 0.0 1.0 0.00 0.00 0.00 85 1017.6
20260905141024 83 143 0.0 2.0 0.00 0.00 0.00 87 1017.6
20260905140523 83 100 2.0 3.0 0.00 0.00 0.00 88 1017.6
20260905140022 84 47 1.0 2.0 0.00 0.00 0.00 86 1017.3
20260905135518 85 261 0.0 0.0 0.00 0.00 0.00 84 1017.6
20260905135014 84 261 0.0 0.0 0.00 0.00 0.00 84 1017.4
20260905134514 83 261 0.0 0.0 0.00 0.00 0.00 86 1017.4
20260905134013 82 265 1.0 1.0 0.00 0.00 0.00 89 1017.5
20260905133508 80 245 0.0 0.0 0.00 0.00 0.00 93 1017.5
20260905133002 78 242 0.0 0.0 0.00 0.00 0.00 99 1017.4
20260905132457 77 241 0.0 0.0 0.00 0.00 0.00 99 1017.6
20260905131957 76 239 0.0 0.0 0.00 0.00 0.00 99 1017.5
20260905131453 75 238 0.0 0.0 0.00 0.00 0.00 99 1017.5
20260905130948 75 238 0.0 0.0 0.00 0.00 0.00 99 1017.4
20260905130447 75 238 0.0 0.0 0.00 0.00 0.00 99 1017.5
20260905125947 74 238 0.0 0.0 0.00 0.00 0.00 99 1017.5
20260905125442 74 238 0.0 0.0 0.00 0.00 0.00 99 1017.5
20260905124937 75 215 0.0 0.0 0.00 0.00 0.00 99 1017.6
20260905124434 74 234 0.0 0.0 0.00 0.00 0.00 99 1017.4
20260905123934 74 233 0.0 0.0 0.00 0.00 0.00 99 1017.7
20260905123430 74 234 0.0 0.0 0.00 0.00 0.00 99 1017.5
20260905122925 74 234 0.0 0.0 0.00 0.00 0.00 99 1017.4
20260905122425 74 233 0.0 0.0 0.00 0.00 0.00 99 1017.4
20260905121921 73 233 0.0 0.0 0.00 0.00 0.00 99 1017.3
20260905121416 73 233 0.0 0.0 0.00 0.00 0.00 99 1017.2
20260905120915 73 233 0.0 0.0 0.00 0.00 0.00 99 1017.1
20260905120415 73 233 0.0 0.0 0.00 0.00 0.00 99 1017.2
20260905115910 73 233 0.0 0.0 0.00 0.00 0.00 99 1016.9
20260905115409 73 234 0.0 0.0 0.00 0.00 0.00 99 1017.1
20260905114905 73 234 0.0 0.0 0.00 0.00 0.00 99 1017.1
20260905114404 73 234 0.0 0.0 0.00 0.00 0.00 99 1016.9
20260905113903 73 234 0.0 0.0 0.00 0.00 0.00 99 1016.9
20260905113359 73 245 0.0 0.0 0.00 0.00 0.00 99 1016.9
20260905112854 73 246 0.0 0.0 0.00 0.00 0.00 99 1016.9
20260905112349 73 248 0.0 0.0 0.00 0.00 0.00 99 1016.8
20260905111845 73 256 0.0 0.0 0.00 0.00 0.00 99 1016.6
20260905111345 73 245 0.0 0.0 0.00 0.00 0.00 99 1016.6
20260905110844 73 245 0.0 0.0 0.00 0.00 0.00 99 1016.4
20260905110344 73 245 0.0 0.0 0.00 0.00 0.00 99 1016.7
20260905105839 73 245 0.0 0.0 0.00 0.00 0.00 99 1016.5
20260905105338 73 245 0.0 0.0 0.00 0.00 0.00 99 1016.4
20260905104832 73 245 0.0 0.0 0.00 0.00 0.00 99 1016.5
20260905104329 73 245 0.0 0.0 0.00 0.00 0.00 99 1016.3
20260905103828 73 245 0.0 0.0 0.00 0.00 0.00 99 1016.3
20260905103324 73 245 0.0 0.0 0.00 0.00 0.00 99 1016.3
20260905102820 73 250 0.0 0.0 0.00 0.00 0.00 99 1016.5
20260905102317 73 250 0.0 0.0 0.00 0.00 0.00 99 1016.2
20260905101816 73 225 0.0 0.0 0.00 0.00 0.00 99 1016.2
20260905101315 73 225 0.0 0.0 0.00 0.00 0.00 99 1016.4
20260905100809 73 225 0.0 0.0 0.00 0.00 0.00 99 1016.3
20260905100306 73 225 0.0 0.0 0.00 0.00 0.00 99 1016.3
20260905095805 73 218 0.0 0.0 0.00 0.00 0.00 99 1016.2
20260905095306 73 217 0.0 0.0 0.00 0.00 0.00 99 1016.3
20260905094759 73 217 0.0 0.0 0.00 0.00 0.00 99 1016.2
20260905094255 73 217 0.0 0.0 0.00 0.00 0.00 99 1016.0
20260905093754 73 219 0.0 0.0 0.00 0.00 0.00 99 1015.9
20260905093250 73 218 0.0 0.0 0.00 0.00 0.00 99 1016.1
20260905092745 73 217 0.0 0.0 0.00 0.00 0.00 99 1015.9
20260905092241 74 217 0.0 0.0 0.00 0.00 0.00 99 1015.9
20260905091740 74 218 0.0 0.0 0.00 0.00 0.00 99 1015.8
20260905091235 74 218 0.0 0.0 0.00 0.00 0.00 99 1016.0
20260905090734 74 219 0.0 0.0 0.00 0.00 0.00 99 1016.0
20260905090230 74 219 0.0 0.0 0.00 0.00 0.00 99 1016.0
20260905085729 74 219 0.0 0.0 0.00 0.00 0.00 99 1015.9
20260905085225 74 220 0.0 0.0 0.00 0.00 0.00 99 1016.1
20260905084724 74 218 0.0 0.0 0.00 0.00 0.00 99 1016.2
20260905084224 74 217 0.0 0.0 0.00 0.00 0.00 99 1016.0
20260905083719 74 219 0.0 0.0 0.00 0.00 0.00 99 1016.1
20260905083215 74 218 0.0 0.0 0.00 0.00 0.00 99 1016.1
20260905082711 74 218 0.0 0.0 0.00 0.00 0.00 99 1016.0
20260905082207 74 219 0.0 0.0 0.00 0.00 0.00 99 1016.1
20260905081706 74 219 0.0 0.0 0.00 0.00 0.00 99 1016.1
20260905081202 74 218 0.0 0.0 0.00 0.00 0.00 99 1016.0
20260905080701 74 218 0.0 0.0 0.00 0.00 0.00 99 1016.1
20260905080200 74 218 0.0 0.0 0.00 0.00 0.00 99 1016.2
20260905075700 74 218 0.0 0.0 0.00 0.00 0.00 99 1016.1
20260905075159 74 218 0.0 0.0 0.00 0.00 0.00 99 1016.0
20260905074658 75 219 0.0 0.0 0.00 0.00 0.00 99 1016.0
20260905074154 74 219 0.0 0.0 0.00 0.00 0.00 99 1016.0
20260905073649 75 219 0.0 0.0 0.00 0.00 0.00 99 1016.3
20260905073145 75 216 0.0 1.0 0.00 0.00 0.00 99 1016.2
20260905072644 75 233 0.0 0.0 0.00 0.00 0.00 99 1016.0
20260905072140 75 249 0.0 0.0 0.00 0.00 0.00 99 1016.2
20260905071636 75 221 0.0 0.0 0.00 0.00 0.00 99 1016.2
20260905071131 75 217 0.0 0.0 0.00 0.00 0.00 99 1016.1
20260905070627 75 218 0.0 0.0 0.00 0.00 0.00 99 1016.4
20260905070123 75 217 0.0 0.0 0.00 0.00 0.00 99 1016.3
20260905065621 75 217 0.0 0.0 0.00 0.00 0.00 99 1016.2
20260905065116 75 198 0.0 0.0 0.00 0.00 0.00 99 1016.2
20260905064611 75 76 1.0 1.0 0.00 0.00 0.00 99 1016.2
20260905064106 75 259 0.0 0.0 0.00 0.00 0.00 99 1016.2
20260905063606 75 257 0.0 0.0 0.00 0.00 0.00 99 1016.4
20260905063102 75 257 0.0 0.0 0.00 0.00 0.00 99 1016.4
20260905062557 75 257 0.0 0.0 0.00 0.00 0.00 99 1016.3
20260905062056 75 257 0.0 0.0 0.00 0.00 0.00 99 1016.3
20260905061551 75 257 0.0 0.0 0.00 0.00 0.00 99 1016.3
20260905061050 75 257 0.0 0.0 0.00 0.00 0.00 99 1016.3
20260905060547 76 260 0.0 0.0 0.00 0.00 0.00 99 1016.4
20260905060042 76 260 0.0 0.0 0.00 0.00 0.00 99 1016.3
20260905055541 75 262 0.0 0.0 0.00 0.00 0.00 99 1016.4
20260905055036 76 262 0.0 0.0 0.00 0.00 0.00 99 1016.3
20260905054531 76 278 0.0 0.0 0.00 0.00 0.00 99 1016.3
20260905054027 76 259 0.0 0.0 0.00 0.00 0.00 99 1016.3
20260905053526 76 262 0.0 0.0 0.00 0.00 0.00 99 1016.4
20260905053022 76 262 0.0 1.0 0.00 0.00 0.00 99 1016.5
20260905052521 76 307 1.0 1.0 0.00 0.00 0.00 98 1016.3
20260905052016 76 337 1.0 2.0 0.00 0.00 0.00 98 1016.5
20260905051512 76 261 0.0 0.0 0.00 0.00 0.00 98 1016.4
20260905051009 77 276 0.0 0.0 0.00 0.00 0.00 98 1016.3
20260905050504 77 283 0.0 0.0 0.00 0.00 0.00 98 1016.3
20260905050000 77 283 0.0 0.0 0.00 0.00 0.00 97 1016.3
20260905045456 77 283 0.0 0.0 0.00 0.00 0.00 97 1016.3
20260905044951 77 266 0.0 0.0 0.00 0.00 0.00 97 1016.3
20260905044451 77 260 0.0 0.0 0.00 0.00 0.00 97 1016.3
20260905043950 77 261 0.0 1.0 0.00 0.00 0.00 97 1016.5
20260905043449 77 217 0.0 0.0 0.00 0.00 0.00 96 1016.4
20260905042945 77 217 0.0 0.0 0.00 0.00 0.00 96 1016.6
20260905042438 77 217 0.0 0.0 0.00 0.00 0.00 96 1016.9
20260905041934 77 217 0.0 0.0 0.00 0.00 0.00 96 1016.7
20260905041430 78 217 0.0 0.0 0.00 0.00 0.00 96 1016.8
20260905040925 78 217 0.0 0.0 0.00 0.00 0.00 96 1016.6
20260905040424 77 218 0.0 0.0 0.00 0.00 0.00 96 1016.6
20260905035923 77 218 0.0 0.0 0.00 0.00 0.00 97 1016.8
20260905035419 78 215 0.0 0.0 0.00 0.00 0.00 97 1016.6
20260905034916 78 215 0.0 0.0 0.00 0.00 0.00 97 1016.7
20260905034406 78 215 0.0 0.0 0.00 0.00 0.00 97 1016.6
20260905033904 78 215 0.0 0.0 0.00 0.00 0.00 96 1017.2
20260905033359 78 215 0.0 0.0 0.00 0.00 0.00 96 1017.1
20260905032858 78 215 0.0 0.0 0.00 0.00 0.00 96 1017.3
20260905032354 79 215 0.0 0.0 0.00 0.00 0.00 95 1017.1
20260905031849 79 215 2.0 2.0 0.00 0.00 0.00 95 1017.0
20260905031345 79 291 0.0 0.0 0.00 0.00 0.00 94 1017.0
20260905030840 79 258 0.0 0.0 0.00 0.00 0.00 93 1016.9
20260905030335 79 258 0.0 0.0 0.00 0.00 0.00 92 1016.9
20260905025834 79 258 0.0 0.0 0.00 0.00 0.00 92 1016.9
20260905025330 80 258 0.0 0.0 0.00 0.00 0.00 91 1017.3
20260905024826 80 258 0.0 0.0 0.00 0.00 0.00 91 1016.9
20260905024321 80 258 0.0 0.0 0.00 0.00 0.00 91 1017.0
20260905023816 80 258 0.0 0.0 0.00 0.00 0.00 91 1017.0
20260905023312 80 258 0.0 0.0 0.00 0.00 0.00 90 1016.9
20260905022811 81 258 0.0 0.0 0.00 0.00 0.00 89 1016.9
20260905022307 81 258 0.0 0.0 0.00 0.00 0.00 88 1016.8
20260905021806 81 258 0.0 0.0 0.00 0.00 0.00 88 1016.8
20260905021301 81 258 0.0 0.0 0.00 0.00 0.00 88 1017.0
20260905020755 82 258 0.0 1.0 0.00 0.00 0.00 87 1016.7
20260905020251 82 258 0.0 1.0 0.00 0.00 0.00 85 1016.8
20260905015749 82 257 0.0 0.0 0.00 0.00 0.00 86 1016.8
20260905015244 82 258 0.0 0.0 0.00 0.00 0.00 85 1016.8
20260905014743 82 258 0.0 0.0 0.00 0.00 0.00 85 1016.9
20260905014239 83 258 0.0 0.0 0.00 0.00 0.00 85 1016.9
20260905013734 83 258 0.0 0.0 0.00 0.00 0.00 84 1016.8
20260905013230 83 256 0.0 0.0 0.00 0.00 0.00 82 1016.6
20260905012725 84 256 0.0 0.0 0.00 0.00 0.00 81 1016.6
20260905012221 84 256 0.0 0.0 0.00 0.00 0.00 81 1016.4
20260905011718 84 256 0.0 0.0 0.00 0.00 0.00 80 1016.3
20260905011214 84 256 0.0 0.0 0.00 0.00 0.00 80 1016.3
20260905010713 84 256 0.0 0.0 0.00 0.00 0.00 82 1016.3
20260905010209 84 256 0.0 0.0 0.00 0.00 0.00 81 1016.2
20260905005706 84 256 0.0 0.0 0.00 0.00 0.00 82 1016.2
20260905005201 84 256 0.0 0.0 0.00 0.00 0.00 83 1016.3
20260905004701 84 256 0.0 0.0 0.00 0.00 0.00 82 1016.1
20260905004156 85 256 0.0 0.0 0.00 0.00 0.00 83 1016.3
20260905003651 85 256 0.0 0.0 0.00 0.00 0.00 80 1016.4
20260905003147 87 211 0.0 2.0 0.00 0.00 0.00 81 1016.1
20260905002643 87 258 0.0 0.0 0.00 0.00 0.00 73 1015.8
20260905002143 87 258 0.0 0.0 0.00 0.00 0.00 72 1015.8
20260905001638 88 258 0.0 0.0 0.00 0.00 0.00 74 1016.2
20260905001137 88 258 0.0 0.0 0.00 0.00 0.00 72 1015.9
20260905000633 90 258 0.0 0.0 0.00 0.00 0.00 72 1015.9
20260905000129 90 258 0.0 0.0 0.00 0.00 0.00 70 1016.0
20260904235628 91 258 0.0 0.0 0.00 0.00 0.00 68 1016.0
20260904235128 92 258 0.0 0.0 0.00 0.00 0.00 68 1016.1